Year,Month,Day,Hour,Minute,Value (Times are PST for temperature in C)
2018,08,19,00,00,16.80
2018,08,19,00,01,16.80
2018,08,19,00,02,16.80
2018,08,19,00,03,16.80
2018,08,19,00,04,16.90
2018,08,19,00,05,16.90
2018,08,19,00,06,16.90
2018,08,19,00,07,16.90
2018,08,19,00,08,16.90
2018,08,19,00,09,16.90
2018,08,19,00,10,16.90
2018,08,19,00,11,16.90
2018,08,19,00,12,17.00
2018,08,19,00,13,17.00
2018,08,19,00,14,17.00
2018,08,19,00,15,17.10
2018,08,19,00,16,17.10
2018,08,19,00,17,17.10
2018,08,19,00,18,17.10
2018,08,19,00,19,17.10
2018,08,19,00,20,17.10
2018,08,19,00,21,17.10
2018,08,19,00,22,17.10
2018,08,19,00,23,17.10
2018,08,19,00,24,17.10
2018,08,19,00,25,17.10
2018,08,19,00,26,17.00
2018,08,19,00,27,17.00
2018,08,19,00,28,17.00
2018,08,19,00,29,16.90
2018,08,19,00,30,16.90
2018,08,19,00,31,16.90
2018,08,19,00,32,16.80
2018,08,19,00,33,16.80
2018,08,19,00,34,16.80
2018,08,19,00,35,16.80
2018,08,19,00,36,16.80
2018,08,19,00,37,16.70
2018,08,19,00,38,16.70
2018,08,19,00,39,16.70
2018,08,19,00,40,16.70
2018,08,19,00,41,16.70
2018,08,19,00,42,16.60
2018,08,19,00,43,16.60
2018,08,19,00,44,16.60
2018,08,19,00,45,16.50
2018,08,19,00,46,16.50
2018,08,19,00,47,16.50
2018,08,19,00,48,16.40
2018,08,19,00,49,16.40
2018,08,19,00,50,16.40
2018,08,19,00,51,16.30
2018,08,19,00,52,16.30
2018,08,19,00,53,16.30
2018,08,19,00,54,16.20
2018,08,19,00,55,16.20
2018,08,19,00,56,16.20
2018,08,19,00,57,16.20
2018,08,19,00,58,16.10
2018,08,19,00,59,16.10
2018,08,19,01,00,16.10
2018,08,19,01,01,16.10
2018,08,19,01,02,16.00
2018,08,19,01,03,16.00
2018,08,19,01,04,16.00
2018,08,19,01,05,15.90
2018,08,19,01,06,15.90
2018,08,19,01,07,15.90
2018,08,19,01,08,15.90
2018,08,19,01,09,15.90
2018,08,19,01,10,15.90
2018,08,19,01,11,15.80
2018,08,19,01,12,15.80
2018,08,19,01,13,15.80
2018,08,19,01,14,15.80
2018,08,19,01,15,15.80
2018,08,19,01,16,15.80
2018,08,19,01,17,15.80
2018,08,19,01,18,15.80
2018,08,19,01,19,15.80
2018,08,19,01,20,15.80
2018,08,19,01,21,15.80
2018,08,19,01,22,15.80
2018,08,19,01,23,15.80
2018,08,19,01,24,15.80
2018,08,19,01,25,15.80
2018,08,19,01,26,15.80
2018,08,19,01,27,15.80
2018,08,19,01,28,15.80
2018,08,19,01,29,15.80
2018,08,19,01,30,15.80
2018,08,19,01,31,15.80
2018,08,19,01,32,15.80
2018,08,19,01,33,15.80
2018,08,19,01,34,15.80
2018,08,19,01,35,15.80
2018,08,19,01,36,15.90
2018,08,19,01,37,15.80
2018,08,19,01,38,15.90
2018,08,19,01,39,15.90
2018,08,19,01,40,15.90
2018,08,19,01,41,15.90
2018,08,19,01,42,15.90
2018,08,19,01,43,15.90
2018,08,19,01,44,15.80
2018,08,19,01,45,15.90
2018,08,19,01,46,15.80
2018,08,19,01,47,15.80
2018,08,19,01,48,15.80
2018,08,19,01,49,15.80
2018,08,19,01,50,15.80
2018,08,19,01,51,15.80
2018,08,19,01,52,15.80
2018,08,19,01,53,15.80
2018,08,19,01,54,15.80
2018,08,19,01,55,15.80
2018,08,19,01,56,15.80
2018,08,19,01,57,15.80
2018,08,19,01,58,15.80
2018,08,19,01,59,15.80
2018,08,19,02,00,15.70
2018,08,19,02,01,15.70
2018,08,19,02,02,15.70
2018,08,19,02,03,15.70
2018,08,19,02,04,15.70
2018,08,19,02,05,15.70
2018,08,19,02,06,15.70
2018,08,19,02,07,15.70
2018,08,19,02,08,15.70
2018,08,19,02,09,15.70
2018,08,19,02,10,15.60
2018,08,19,02,11,15.60
2018,08,19,02,12,15.60
2018,08,19,02,13,15.60
2018,08,19,02,14,15.60
2018,08,19,02,15,15.60
2018,08,19,02,16,15.60
2018,08,19,02,17,15.60
2018,08,19,02,18,15.60
2018,08,19,02,19,15.60
2018,08,19,02,20,15.50
2018,08,19,02,21,15.50
2018,08,19,02,22,15.50
2018,08,19,02,23,15.50
2018,08,19,02,24,15.50
2018,08,19,02,25,15.40
2018,08,19,02,26,15.40
2018,08,19,02,27,15.40
2018,08,19,02,28,15.40
2018,08,19,02,29,15.40
2018,08,19,02,30,15.40
2018,08,19,02,31,15.30
2018,08,19,02,32,15.30
2018,08,19,02,33,15.30
2018,08,19,02,34,15.30
2018,08,19,02,35,15.30
2018,08,19,02,36,15.30
2018,08,19,02,37,15.30
2018,08,19,02,38,15.30
2018,08,19,02,39,15.30
2018,08,19,02,40,15.20
2018,08,19,02,41,15.20
2018,08,19,02,42,15.20
2018,08,19,02,43,15.20
2018,08,19,02,44,15.20
2018,08,19,02,45,15.20
2018,08,19,02,46,15.20
2018,08,19,02,47,15.20
2018,08,19,02,48,15.20
2018,08,19,02,49,15.20
2018,08,19,02,50,15.20
2018,08,19,02,51,15.20
2018,08,19,02,52,15.20
2018,08,19,02,53,15.10
2018,08,19,02,54,15.20
2018,08,19,02,55,15.20
2018,08,19,02,56,15.10
2018,08,19,02,57,15.10
2018,08,19,02,58,15.10
2018,08,19,02,59,15.10
2018,08,19,03,00,15.10
2018,08,19,03,01,15.10
2018,08,19,03,02,15.10
2018,08,19,03,03,15.10
2018,08,19,03,04,15.10
2018,08,19,03,05,15.10
2018,08,19,03,06,15.10
2018,08,19,03,07,15.10
2018,08,19,03,08,15.10
2018,08,19,03,09,15.10
2018,08,19,03,10,15.10
2018,08,19,03,11,15.10
2018,08,19,03,12,15.10
2018,08,19,03,13,15.10
2018,08,19,03,14,15.00
2018,08,19,03,15,15.00
2018,08,19,03,16,15.00
2018,08,19,03,17,15.00
2018,08,19,03,18,15.00
2018,08,19,03,19,14.90
2018,08,19,03,20,14.90
2018,08,19,03,21,14.90
2018,08,19,03,22,14.90
2018,08,19,03,23,14.90
2018,08,19,03,24,14.90
2018,08,19,03,25,14.90
2018,08,19,03,26,14.90
2018,08,19,03,27,14.90
2018,08,19,03,28,14.90
2018,08,19,03,29,14.80
2018,08,19,03,30,14.80
2018,08,19,03,31,14.80
2018,08,19,03,32,14.80
2018,08,19,03,33,14.80
2018,08,19,03,34,14.80
2018,08,19,03,35,14.80
2018,08,19,03,36,14.80
2018,08,19,03,37,14.80
2018,08,19,03,38,14.80
2018,08,19,03,39,14.80
2018,08,19,03,40,14.80
2018,08,19,03,41,14.80
2018,08,19,03,42,14.70
2018,08,19,03,43,14.80
2018,08,19,03,44,14.70
2018,08,19,03,45,14.70
2018,08,19,03,46,14.70
2018,08,19,03,47,14.70
2018,08,19,03,48,14.70
2018,08,19,03,49,14.70
2018,08,19,03,50,14.70
2018,08,19,03,51,14.70
2018,08,19,03,52,14.70
2018,08,19,03,53,14.70
2018,08,19,03,54,14.70
2018,08,19,03,55,14.70
2018,08,19,03,56,14.70
2018,08,19,03,57,14.70
2018,08,19,03,58,14.70
2018,08,19,03,59,14.70
2018,08,19,04,00,14.70
2018,08,19,04,01,14.60
2018,08,19,04,02,14.60
2018,08,19,04,03,14.60
2018,08,19,04,04,14.60
2018,08,19,04,05,14.60
2018,08,19,04,06,14.60
2018,08,19,04,07,14.60
2018,08,19,04,08,14.60
2018,08,19,04,09,14.60
2018,08,19,04,10,14.60
2018,08,19,04,11,14.60
2018,08,19,04,12,14.60
2018,08,19,04,13,14.60
2018,08,19,04,14,14.60
2018,08,19,04,15,14.60
2018,08,19,04,16,14.60
2018,08,19,04,17,14.60
2018,08,19,04,18,14.60
2018,08,19,04,19,14.60
2018,08,19,04,20,14.60
2018,08,19,04,21,14.60
2018,08,19,04,22,14.60
2018,08,19,04,23,14.60
2018,08,19,04,24,14.70
2018,08,19,04,25,14.70
2018,08,19,04,26,14.70
2018,08,19,04,27,14.70
2018,08,19,04,28,14.70
2018,08,19,04,29,14.70
2018,08,19,04,30,14.70
2018,08,19,04,31,14.70
2018,08,19,04,32,14.70
2018,08,19,04,33,14.70
2018,08,19,04,34,14.70
2018,08,19,04,35,14.80
2018,08,19,04,36,14.80
2018,08,19,04,37,14.80
2018,08,19,04,38,14.80
2018,08,19,04,39,14.80
2018,08,19,04,40,14.80
2018,08,19,04,41,14.80
2018,08,19,04,42,14.90
2018,08,19,04,43,14.90
2018,08,19,04,44,14.90
2018,08,19,04,45,14.90
2018,08,19,04,46,15.00
2018,08,19,04,47,15.00
2018,08,19,04,48,15.00
2018,08,19,04,49,15.10
2018,08,19,04,50,15.10
2018,08,19,04,51,15.10
2018,08,19,04,52,15.10
2018,08,19,04,53,15.20
2018,08,19,04,54,15.20
2018,08,19,04,55,15.20
2018,08,19,04,56,15.20
2018,08,19,04,57,15.20
2018,08,19,04,58,15.30
2018,08,19,04,59,15.30
2018,08,19,05,00,15.30
2018,08,19,05,01,15.30
2018,08,19,05,02,15.30
2018,08,19,05,03,15.40
2018,08,19,05,04,15.40
2018,08,19,05,05,15.40
2018,08,19,05,06,15.40
2018,08,19,05,07,15.50
2018,08,19,05,08,15.50
2018,08,19,05,09,15.60
2018,08,19,05,10,15.60
2018,08,19,05,11,15.60
2018,08,19,05,12,15.70
2018,08,19,05,13,15.70
2018,08,19,05,14,15.70
2018,08,19,05,15,15.70
2018,08,19,05,16,15.70
2018,08,19,05,17,15.80
2018,08,19,05,18,15.80
2018,08,19,05,19,15.80
2018,08,19,05,20,15.80
2018,08,19,05,21,15.80
2018,08,19,05,22,15.80
2018,08,19,05,23,15.90
2018,08,19,05,24,15.90
2018,08,19,05,25,15.90
2018,08,19,05,26,15.90
2018,08,19,05,27,15.90
2018,08,19,05,28,15.90
2018,08,19,05,29,15.90
2018,08,19,05,30,15.90
2018,08,19,05,31,15.90
2018,08,19,05,32,16.00
2018,08,19,05,33,16.00
2018,08,19,05,34,16.00
2018,08,19,05,35,16.00
2018,08,19,05,36,16.00
2018,08,19,05,37,16.00
2018,08,19,05,38,16.00
2018,08,19,05,39,16.00
2018,08,19,05,40,16.00
2018,08,19,05,41,16.00
2018,08,19,05,42,16.00
2018,08,19,05,43,16.00
2018,08,19,05,44,16.00
2018,08,19,05,45,16.00
2018,08,19,05,46,15.90
2018,08,19,05,47,15.90
2018,08,19,05,48,15.90
2018,08,19,05,49,15.90
2018,08,19,05,50,15.90
2018,08,19,05,51,15.90
2018,08,19,05,52,15.90
2018,08,19,05,53,15.90
2018,08,19,05,54,15.80
2018,08,19,05,55,15.80
2018,08,19,05,56,15.80
2018,08,19,05,57,15.80
2018,08,19,05,58,15.80
2018,08,19,05,59,15.80
2018,08,19,06,00,15.70
2018,08,19,06,01,15.70
2018,08,19,06,02,15.70
2018,08,19,06,03,15.70
2018,08,19,06,04,15.70
2018,08,19,06,05,15.70
2018,08,19,06,06,15.60
2018,08,19,06,07,15.60
2018,08,19,06,08,15.60
2018,08,19,06,09,15.60
2018,08,19,06,10,15.60
2018,08,19,06,11,15.60
2018,08,19,06,12,15.50
2018,08,19,06,13,15.50
2018,08,19,06,14,15.50
2018,08,19,06,15,15.50
2018,08,19,06,16,15.40
2018,08,19,06,17,15.40
2018,08,19,06,18,15.40
2018,08,19,06,19,15.40
2018,08,19,06,20,15.40
2018,08,19,06,21,15.40
2018,08,19,06,22,15.40
2018,08,19,06,23,15.30
2018,08,19,06,24,15.30
2018,08,19,06,25,15.30
2018,08,19,06,26,15.30
2018,08,19,06,27,15.30
2018,08,19,06,28,15.30
2018,08,19,06,29,15.30
2018,08,19,06,30,15.30
2018,08,19,06,31,15.20
2018,08,19,06,32,15.20
2018,08,19,06,33,15.20
2018,08,19,06,34,15.20
2018,08,19,06,35,15.20
2018,08,19,06,36,15.20
2018,08,19,06,37,15.20
2018,08,19,06,38,15.20
2018,08,19,06,39,15.20
2018,08,19,06,40,15.20
2018,08,19,06,41,15.20
2018,08,19,06,42,15.20
2018,08,19,06,43,15.10
2018,08,19,06,44,15.10
2018,08,19,06,45,15.10
2018,08,19,06,46,15.10
2018,08,19,06,47,15.10
2018,08,19,06,48,15.10
2018,08,19,06,49,15.10
2018,08,19,06,50,15.10
2018,08,19,06,51,15.10
2018,08,19,06,52,15.10
2018,08,19,06,53,15.10
2018,08,19,06,54,15.10
2018,08,19,06,55,15.20
2018,08,19,06,56,15.20
2018,08,19,06,57,15.20
2018,08,19,06,58,15.20
2018,08,19,06,59,15.20
2018,08,19,07,00,15.20
2018,08,19,07,01,15.20
2018,08,19,07,02,15.20
2018,08,19,07,03,15.20
2018,08,19,07,04,15.30
2018,08,19,07,05,15.30
2018,08,19,07,06,15.30
2018,08,19,07,07,15.30
2018,08,19,07,08,15.30
2018,08,19,07,09,15.30
2018,08,19,07,10,15.30
2018,08,19,07,11,15.30
2018,08,19,07,12,15.30
2018,08,19,07,13,15.30
2018,08,19,07,14,15.30
2018,08,19,07,15,15.30
2018,08,19,07,16,15.40
2018,08,19,07,17,15.40
2018,08,19,07,18,15.40
2018,08,19,07,19,15.40
2018,08,19,07,20,15.40
2018,08,19,07,21,15.40
2018,08,19,07,22,15.40
2018,08,19,07,23,15.40
2018,08,19,07,24,15.40
2018,08,19,07,25,15.40
2018,08,19,07,26,15.30
2018,08,19,07,27,15.30
2018,08,19,07,28,15.30
2018,08,19,07,29,15.30
2018,08,19,07,30,15.30
2018,08,19,07,31,15.30
2018,08,19,07,32,15.30
2018,08,19,07,33,15.30
2018,08,19,07,34,15.30
2018,08,19,07,35,15.30
2018,08,19,07,36,15.30
2018,08,19,07,37,15.30
2018,08,19,07,38,15.30
2018,08,19,07,39,15.30
2018,08,19,07,40,15.20
2018,08,19,07,41,15.20
2018,08,19,07,42,15.20
2018,08,19,07,43,15.20
2018,08,19,07,44,15.20
2018,08,19,07,45,15.20
2018,08,19,07,46,15.20
2018,08,19,07,47,15.20
2018,08,19,07,48,15.20
2018,08,19,07,49,15.10
2018,08,19,07,50,15.10
2018,08,19,07,51,15.10
2018,08,19,07,52,15.10
2018,08,19,07,53,15.10
2018,08,19,07,54,15.10
2018,08,19,07,55,15.10
2018,08,19,07,56,15.10
2018,08,19,07,57,15.10
2018,08,19,07,58,15.10
2018,08,19,07,59,15.10
2018,08,19,08,00,15.10
2018,08,19,08,01,15.10
2018,08,19,08,02,15.10
2018,08,19,08,03,15.10
2018,08,19,08,04,15.00
2018,08,19,08,05,15.10
2018,08,19,08,06,15.10
2018,08,19,08,07,15.10
2018,08,19,08,08,15.10
2018,08,19,08,09,15.10
2018,08,19,08,10,15.10
2018,08,19,08,11,15.10
2018,08,19,08,12,15.10
2018,08,19,08,13,15.10
2018,08,19,08,14,15.10
2018,08,19,08,15,15.10
2018,08,19,08,16,15.10
2018,08,19,08,17,15.10
2018,08,19,08,18,15.10
2018,08,19,08,19,15.10
2018,08,19,08,20,15.20
2018,08,19,08,21,15.20
2018,08,19,08,22,15.20
2018,08,19,08,23,15.20
2018,08,19,08,24,15.20
2018,08,19,08,25,15.20
2018,08,19,08,26,15.30
2018,08,19,08,27,15.30
2018,08,19,08,28,15.30
2018,08,19,08,29,15.40
2018,08,19,08,30,15.40
2018,08,19,08,31,15.40
2018,08,19,08,32,15.40
2018,08,19,08,33,15.40
2018,08,19,08,34,15.50
2018,08,19,08,35,15.50
2018,08,19,08,36,15.50
2018,08,19,08,37,15.60
2018,08,19,08,38,15.60
2018,08,19,08,39,15.60
2018,08,19,08,40,15.60
2018,08,19,08,41,15.70
2018,08,19,08,42,15.70
2018,08,19,08,43,15.70
2018,08,19,08,44,15.70
2018,08,19,08,45,15.80
2018,08,19,08,46,15.80
2018,08,19,08,47,15.80
2018,08,19,08,48,15.90
2018,08,19,08,49,15.90
2018,08,19,08,50,15.90
2018,08,19,08,51,16.00
2018,08,19,08,52,16.00
2018,08,19,08,53,16.00
2018,08,19,08,54,16.10
2018,08,19,08,55,16.10
2018,08,19,08,56,16.20
2018,08,19,08,57,16.20
2018,08,19,08,58,16.20
2018,08,19,08,59,16.30
2018,08,19,09,00,16.30
2018,08,19,09,01,16.30
2018,08,19,09,02,16.30
2018,08,19,09,03,16.40
2018,08,19,09,04,16.40
2018,08,19,09,05,16.40
2018,08,19,09,06,16.50
2018,08,19,09,07,16.50
2018,08,19,09,08,16.60
2018,08,19,09,09,16.60
2018,08,19,09,10,16.70
2018,08,19,09,11,16.70
2018,08,19,09,12,16.70
2018,08,19,09,13,16.80
2018,08,19,09,14,16.80
2018,08,19,09,15,16.80
2018,08,19,09,16,16.90
2018,08,19,09,17,16.90
2018,08,19,09,18,16.90
2018,08,19,09,19,17.00
2018,08,19,09,20,17.00
2018,08,19,09,21,17.10
2018,08,19,09,22,17.10
2018,08,19,09,23,17.10
2018,08,19,09,24,17.10
2018,08,19,09,25,17.20
2018,08,19,09,26,17.20
2018,08,19,09,27,17.30
2018,08,19,09,28,17.40
2018,08,19,09,29,17.40
2018,08,19,09,30,17.50
2018,08,19,09,31,17.50
2018,08,19,09,32,17.60
2018,08,19,09,33,17.60
2018,08,19,09,34,17.70
2018,08,19,09,35,17.70
2018,08,19,09,36,17.70
2018,08,19,09,37,17.80
2018,08,19,09,38,17.80
2018,08,19,09,39,17.80
2018,08,19,09,40,17.80
2018,08,19,09,41,17.90
2018,08,19,09,42,17.90
2018,08,19,09,43,17.90
2018,08,19,09,44,18.00
2018,08,19,09,45,18.00
2018,08,19,09,46,18.00
2018,08,19,09,47,18.10
2018,08,19,09,48,18.10
2018,08,19,09,49,18.10
2018,08,19,09,50,18.10
2018,08,19,09,51,18.10
2018,08,19,09,52,18.10
2018,08,19,09,53,18.20
2018,08,19,09,54,18.20
2018,08,19,09,55,18.20
2018,08,19,09,56,18.20
2018,08,19,09,57,18.20
2018,08,19,09,58,18.30
2018,08,19,09,59,18.30
2018,08,19,10,00,18.30
2018,08,19,10,01,18.40
2018,08,19,10,02,18.40
2018,08,19,10,03,18.40
2018,08,19,10,04,18.50
2018,08,19,10,05,18.50
2018,08,19,10,06,18.60
2018,08,19,10,07,18.60
2018,08,19,10,08,18.60
2018,08,19,10,09,18.70
2018,08,19,10,10,18.70
2018,08,19,10,11,18.70
2018,08,19,10,12,18.80
2018,08,19,10,13,18.80
2018,08,19,10,14,18.80
2018,08,19,10,15,18.90
2018,08,19,10,16,18.90
2018,08,19,10,17,18.90
2018,08,19,10,18,18.90
2018,08,19,10,19,19.00
2018,08,19,10,20,19.00
2018,08,19,10,21,19.00
2018,08,19,10,22,19.10
2018,08,19,10,23,19.10
2018,08,19,10,24,19.20
2018,08,19,10,25,19.20
2018,08,19,10,26,19.20
2018,08,19,10,27,19.20
2018,08,19,10,28,19.20
2018,08,19,10,29,19.30
2018,08,19,10,30,19.30
2018,08,19,10,31,19.30
2018,08,19,10,32,19.30
2018,08,19,10,33,19.30
2018,08,19,10,34,19.30
2018,08,19,10,35,19.30
2018,08,19,10,36,19.30
2018,08,19,10,37,19.30
2018,08,19,10,38,19.30
2018,08,19,10,39,19.30
2018,08,19,10,40,19.40
2018,08,19,10,41,19.40
2018,08,19,10,42,19.40
2018,08,19,10,43,19.40
2018,08,19,10,44,19.40
2018,08,19,10,45,19.50
2018,08,19,10,46,19.50
2018,08,19,10,47,19.50
2018,08,19,10,48,19.50
2018,08,19,10,49,19.50
2018,08,19,10,50,19.60
2018,08,19,10,51,19.60
2018,08,19,10,52,19.60
2018,08,19,10,53,19.60
2018,08,19,10,54,19.60
2018,08,19,10,55,19.60
2018,08,19,10,56,19.60
2018,08,19,10,57,19.50
2018,08,19,10,58,19.50
2018,08,19,10,59,19.50
2018,08,19,11,00,19.40
2018,08,19,11,01,19.40
2018,08,19,11,02,19.40
2018,08,19,11,03,19.50
2018,08,19,11,04,19.50
2018,08,19,11,05,19.50
2018,08,19,11,06,19.60
2018,08,19,11,07,19.60
2018,08,19,11,08,19.60
2018,08,19,11,09,19.60
2018,08,19,11,10,19.50
2018,08,19,11,11,19.50
2018,08,19,11,12,19.50
2018,08,19,11,13,19.50
2018,08,19,11,14,19.50
2018,08,19,11,15,19.50
2018,08,19,11,16,19.50
2018,08,19,11,17,19.50
2018,08,19,11,18,19.50
2018,08,19,11,19,19.50
2018,08,19,11,20,19.50
2018,08,19,11,21,19.50
2018,08,19,11,22,19.50
2018,08,19,11,23,19.50
2018,08,19,11,24,19.40
2018,08,19,11,25,19.40
2018,08,19,11,26,19.40
2018,08,19,11,27,19.40
2018,08,19,11,28,19.40
2018,08,19,11,29,19.50
2018,08,19,11,30,19.50
2018,08,19,11,31,19.50
2018,08,19,11,32,19.50
2018,08,19,11,33,19.50
2018,08,19,11,34,19.50
2018,08,19,11,35,19.60
2018,08,19,11,36,19.60
2018,08,19,11,37,19.60
2018,08,19,11,38,19.60
2018,08,19,11,39,19.60
2018,08,19,11,40,19.60
2018,08,19,11,41,19.60
2018,08,19,11,42,19.60
2018,08,19,11,43,19.60
2018,08,19,11,44,19.70
2018,08,19,11,45,19.70
2018,08,19,11,46,19.70
2018,08,19,11,47,19.70
2018,08,19,11,48,19.70
2018,08,19,11,49,19.70
2018,08,19,11,50,19.80
2018,08,19,11,51,19.80
2018,08,19,11,52,19.80
2018,08,19,11,53,19.90
2018,08,19,11,54,19.90
2018,08,19,11,55,19.90
2018,08,19,11,56,19.90
2018,08,19,11,57,19.90
2018,08,19,11,58,19.90
2018,08,19,11,59,19.90
2018,08,19,12,00,19.90
2018,08,19,12,01,20.00
2018,08,19,12,02,20.00
2018,08,19,12,03,20.00
2018,08,19,12,04,20.00
2018,08,19,12,05,20.10
2018,08,19,12,06,20.10
2018,08,19,12,07,20.20
2018,08,19,12,08,20.20
2018,08,19,12,09,20.20
2018,08,19,12,10,20.20
2018,08,19,12,11,20.20
2018,08,19,12,12,20.20
2018,08,19,12,13,20.20
2018,08,19,12,14,20.30
2018,08,19,12,15,20.30
2018,08,19,12,16,20.30
2018,08,19,12,17,20.40
2018,08,19,12,18,20.40
2018,08,19,12,19,20.50
2018,08,19,12,20,20.50
2018,08,19,12,21,20.60
2018,08,19,12,22,20.60
2018,08,19,12,23,20.60
2018,08,19,12,24,20.60
2018,08,19,12,25,20.70
2018,08,19,12,26,20.70
2018,08,19,12,27,20.80
2018,08,19,12,28,20.80
2018,08,19,12,29,20.80
2018,08,19,12,30,20.80
2018,08,19,12,31,20.90
2018,08,19,12,32,20.90
2018,08,19,12,33,20.90
2018,08,19,12,34,20.90
2018,08,19,12,35,20.90
2018,08,19,12,36,20.90
2018,08,19,12,37,20.90
2018,08,19,12,38,20.90
2018,08,19,12,39,20.90
2018,08,19,12,40,20.90
2018,08,19,12,41,20.90
2018,08,19,12,42,20.90
2018,08,19,12,43,20.90
2018,08,19,12,44,20.90
2018,08,19,12,45,20.90
2018,08,19,12,46,20.90
2018,08,19,12,47,20.90
2018,08,19,12,48,21.00
2018,08,19,12,49,21.00
2018,08,19,12,50,21.10
2018,08,19,12,51,21.10
2018,08,19,12,52,21.10
2018,08,19,12,53,21.10
2018,08,19,12,54,21.10
2018,08,19,12,55,21.20
2018,08,19,12,56,21.20
2018,08,19,12,57,21.20
2018,08,19,12,58,21.20
2018,08,19,12,59,21.20
2018,08,19,13,00,21.20
2018,08,19,13,01,21.20
2018,08,19,13,02,21.20
2018,08,19,13,03,21.30
2018,08,19,13,04,21.30
2018,08,19,13,05,21.30
2018,08,19,13,06,21.30
2018,08,19,13,07,21.30
2018,08,19,13,08,21.30
2018,08,19,13,09,21.30
2018,08,19,13,10,21.30
2018,08,19,13,11,21.30
2018,08,19,13,12,21.30
2018,08,19,13,13,21.30
2018,08,19,13,14,21.30
2018,08,19,13,15,21.30
2018,08,19,13,16,21.30
2018,08,19,13,17,21.30
2018,08,19,13,18,21.30
2018,08,19,13,19,21.40
2018,08,19,13,20,21.40
2018,08,19,13,21,21.40
2018,08,19,13,22,21.40
2018,08,19,13,23,21.50
2018,08,19,13,24,21.50
2018,08,19,13,25,21.50
2018,08,19,13,26,21.60
2018,08,19,13,27,21.50
2018,08,19,13,28,21.50
2018,08,19,13,29,21.50
2018,08,19,13,30,21.40
2018,08,19,13,31,21.40
2018,08,19,13,32,21.30
2018,08,19,13,33,21.30
2018,08,19,13,34,21.30
2018,08,19,13,35,21.30
2018,08,19,13,36,21.30
2018,08,19,13,37,21.30
2018,08,19,13,38,21.30
2018,08,19,13,39,21.30
2018,08,19,13,40,21.30
2018,08,19,13,41,21.30
2018,08,19,13,42,21.30
2018,08,19,13,43,21.30
2018,08,19,13,44,21.30
2018,08,19,13,45,21.30
2018,08,19,13,46,21.30
2018,08,19,13,47,21.30
2018,08,19,13,48,21.40
2018,08,19,13,49,21.40
2018,08,19,13,50,21.40
2018,08,19,13,51,21.50
2018,08,19,13,52,21.50
2018,08,19,13,53,21.60
2018,08,19,13,54,21.70
2018,08,19,13,55,21.70
2018,08,19,13,56,21.80
2018,08,19,13,57,21.80
2018,08,19,13,58,21.80
2018,08,19,13,59,21.90
2018,08,19,14,00,21.90
2018,08,19,14,01,21.90
2018,08,19,14,02,21.90
2018,08,19,14,03,22.00
2018,08,19,14,04,22.00
2018,08,19,14,05,22.00
2018,08,19,14,06,22.00
2018,08,19,14,07,22.00
2018,08,19,14,08,22.00
2018,08,19,14,09,22.00
2018,08,19,14,10,22.00
2018,08,19,14,11,21.90
2018,08,19,14,12,21.90
2018,08,19,14,13,21.90
2018,08,19,14,14,21.90
2018,08,19,14,15,21.80
2018,08,19,14,16,21.80
2018,08,19,14,17,21.80
2018,08,19,14,18,21.80
2018,08,19,14,19,21.80
2018,08,19,14,20,21.80
2018,08,19,14,21,21.80
2018,08,19,14,22,21.80
2018,08,19,14,23,21.80
2018,08,19,14,24,21.80
2018,08,19,14,25,21.80
2018,08,19,14,26,21.80
2018,08,19,14,27,21.80
2018,08,19,14,28,21.80
2018,08,19,14,29,21.80
2018,08,19,14,30,21.80
2018,08,19,14,31,21.90
2018,08,19,14,32,21.90
2018,08,19,14,33,21.90
2018,08,19,14,34,21.90
2018,08,19,14,35,21.90
2018,08,19,14,36,21.90
2018,08,19,14,37,21.80
2018,08,19,14,38,21.80
2018,08,19,14,39,21.80
2018,08,19,14,40,21.80
2018,08,19,14,41,21.80
2018,08,19,14,42,21.70
2018,08,19,14,43,21.70
2018,08,19,14,44,21.60
2018,08,19,14,45,21.60
2018,08,19,14,46,21.60
2018,08,19,14,47,21.50
2018,08,19,14,48,21.50
2018,08,19,14,49,21.40
2018,08,19,14,50,21.40
2018,08,19,14,51,21.40
2018,08,19,14,52,21.30
2018,08,19,14,53,21.30
2018,08,19,14,54,21.30
2018,08,19,14,55,21.30
2018,08,19,14,56,21.30
2018,08,19,14,57,21.30
2018,08,19,14,58,21.30
2018,08,19,14,59,21.30
2018,08,19,15,00,21.30
2018,08,19,15,01,21.40
2018,08,19,15,02,21.40
2018,08,19,15,03,21.40
2018,08,19,15,04,21.50
2018,08,19,15,05,21.50
2018,08,19,15,06,21.60
2018,08,19,15,07,21.60
2018,08,19,15,08,21.70
2018,08,19,15,09,21.80
2018,08,19,15,10,21.80
2018,08,19,15,11,21.90
2018,08,19,15,12,21.90
2018,08,19,15,13,22.00
2018,08,19,15,14,22.10
2018,08,19,15,15,22.20
2018,08,19,15,16,22.30
2018,08,19,15,17,22.30
2018,08,19,15,18,22.40
2018,08,19,15,19,22.40
2018,08,19,15,20,22.40
2018,08,19,15,21,22.40
2018,08,19,15,22,22.50
2018,08,19,15,23,22.50
2018,08,19,15,24,22.50
2018,08,19,15,25,22.50
2018,08,19,15,26,22.50
2018,08,19,15,27,22.50
2018,08,19,15,28,22.50
2018,08,19,15,29,22.50
2018,08,19,15,30,22.50
2018,08,19,15,31,22.50
2018,08,19,15,32,22.50
2018,08,19,15,33,22.40
2018,08,19,15,34,22.40
2018,08,19,15,35,22.40
2018,08,19,15,36,22.40
2018,08,19,15,37,22.40
2018,08,19,15,38,22.40
2018,08,19,15,39,22.40
2018,08,19,15,40,22.40
2018,08,19,15,41,22.40
2018,08,19,15,42,22.40
2018,08,19,15,43,22.40
2018,08,19,15,44,22.40
2018,08,19,15,45,22.40
2018,08,19,15,46,22.40
2018,08,19,15,47,22.40
2018,08,19,15,48,22.40
2018,08,19,15,49,22.40
2018,08,19,15,50,22.40
2018,08,19,15,51,22.50
2018,08,19,15,52,22.50
2018,08,19,15,53,22.50
2018,08,19,15,54,22.50
2018,08,19,15,55,22.50
2018,08,19,15,56,22.50
2018,08,19,15,57,22.50
2018,08,19,15,58,22.50
2018,08,19,15,59,22.50
2018,08,19,16,00,22.50
2018,08,19,16,01,22.50
2018,08,19,16,02,22.50
2018,08,19,16,03,22.50
2018,08,19,16,04,22.50
2018,08,19,16,05,22.40
2018,08,19,16,06,22.40
2018,08,19,16,07,22.40
2018,08,19,16,08,22.40
2018,08,19,16,09,22.40
2018,08,19,16,10,22.40
2018,08,19,16,11,22.40
2018,08,19,16,12,22.40
2018,08,19,16,13,22.40
2018,08,19,16,14,22.40
2018,08,19,16,15,22.40
2018,08,19,16,16,22.40
2018,08,19,16,17,22.40
2018,08,19,16,18,22.30
2018,08,19,16,19,22.30
2018,08,19,16,20,22.30
2018,08,19,16,21,22.40
2018,08,19,16,22,22.40
2018,08,19,16,23,22.40
2018,08,19,16,24,22.40
2018,08,19,16,25,22.40
2018,08,19,16,26,22.50
2018,08,19,16,27,22.50
2018,08,19,16,28,22.50
2018,08,19,16,29,22.50
2018,08,19,16,30,22.60
2018,08,19,16,31,22.60
2018,08,19,16,32,22.60
2018,08,19,16,33,22.60
2018,08,19,16,34,22.60
2018,08,19,16,35,22.70
2018,08,19,16,36,22.70
2018,08,19,16,37,22.70
2018,08,19,16,38,22.80
2018,08,19,16,39,22.80
2018,08,19,16,40,22.80
2018,08,19,16,41,22.90
2018,08,19,16,42,22.90
2018,08,19,16,43,22.90
2018,08,19,16,44,22.90
2018,08,19,16,45,22.90
2018,08,19,16,46,22.90
2018,08,19,16,47,22.90
2018,08,19,16,48,22.90
2018,08,19,16,49,22.90
2018,08,19,16,50,22.90
2018,08,19,16,51,22.90
2018,08,19,16,52,22.90
2018,08,19,16,53,22.90
2018,08,19,16,54,22.90
2018,08,19,16,55,22.90
2018,08,19,16,56,22.90
2018,08,19,16,57,22.90
2018,08,19,16,58,22.90
2018,08,19,16,59,22.90
2018,08,19,17,00,22.90
2018,08,19,17,01,22.90
2018,08,19,17,02,22.80
2018,08,19,17,03,22.80
2018,08,19,17,04,22.80
2018,08,19,17,05,22.80
2018,08,19,17,06,22.80
2018,08,19,17,07,22.80
2018,08,19,17,08,22.80
2018,08,19,17,09,22.80
2018,08,19,17,10,22.80
2018,08,19,17,11,22.70
2018,08,19,17,12,22.70
2018,08,19,17,13,22.70
2018,08,19,17,14,22.70
2018,08,19,17,15,22.70
2018,08,19,17,16,22.60
2018,08,19,17,17,22.60
2018,08,19,17,18,22.60
2018,08,19,17,19,22.60